sat.trackr.live / text

‹ back to catalog

STARLINK-3542

NORAD 51852 · 2022-022A

PAYLOAD ACTIVE UNKNOWN

§ Identity

Operator
Country
US
Launch date
2022-03-03
Launch site
AFETR
Launch vehicle
Mass (kg)
RCS (m²)

Purposes: comms

External: N2YO · Heavens-Above · Gunter

§ Orbital elements

Epoch: 2026-05-24T23:06:02.179872Z

Period
95.44 min
Inclination
53.2164°
Eccentricity
0.0001531
Mean motion
15.08842784 rev/d
Perigee alt
538.7 km
Apogee alt
540.8 km
Semi-major
6,917.9 km
B*
5.5209e-5
RAAN
36.7178°
Arg perigee
93.7551°
Mean anomaly
266.3616°
Rev number
23,327

§ Raw data

STARLINK-35421 51852U 22022A   26144.96252523  .00000591  00000+0  55209-4 0  99992 51852  53.2164  36.7178 0001531  93.7551 266.3616 15.08842784233270

JSON: /api/v1/satellites/51852 · /tle

For live sub-satellite position, see the globe view (requires WebGL).

§ Visibility from observer

Set your observer location to see the next 7 days of passes ≥ 10°. The values pass through the URL so the page stays shareable.

No JS? Fill the form by hand. The geolocation button needs JavaScript.